﻿_id,datum,zaehlstelle,uhrzeit_start,uhrzeit_ende,richtung_1,richtung_2,gesamt,min.temp,max.temp,niederschlag,bewoelkung,sonnenstunden,kommentar
1,2013-01-01,Arnulf,00:00,23:59,123,13,136,-5.6,7.2,0.9,78,1,NA
2,2013-01-02,Arnulf,00:00,23:59,438,20,458,-4.6,4.5,0,60,0.7,NA
3,2013-01-03,Arnulf,00:00,23:59,349,15,364,-5.4,5.4,1.3,80,0,NA
4,2013-01-04,Arnulf,00:00,23:59,277,14,291,4.1,7.7,15.2,100,0,NA
5,2013-01-05,Arnulf,00:00,23:59,88,6,94,4.7,7.3,3.7,100,0,NA
6,2013-01-06,Arnulf,00:00,23:59,114,12,126,4.6,5.7,1.3,100,0,NA
7,2013-01-07,Arnulf,00:00,23:59,539,28,567,1.9,6.2,0.6,95,0,NA
8,2013-01-08,Arnulf,00:00,23:59,594,25,619,0.4,5.2,2.3,91,0.1,NA
9,2013-01-09,Arnulf,00:00,23:59,652,25,677,0.3,4.8,0.7,99,0.4,NA
10,2013-01-10,Arnulf,00:00,23:59,529,27,556,1,4.1,0.9,99,0.1,NA
11,2013-01-11,Arnulf,00:00,23:59,464,30,494,-3.6,2,0.5,75,2,NA
12,2013-01-12,Arnulf,00:00,23:59,131,12,143,-3.4,-0.8,0.9,100,0,NA
13,2013-01-13,Arnulf,00:00,23:59,92,11,103,-3.5,-2.2,0,98,0.3,NA
14,2013-01-14,Arnulf,00:00,23:59,398,14,412,-3.2,-1.1,0.1,100,0,NA
15,2013-01-15,Arnulf,00:00,23:59,408,22,430,-4.6,-1.5,0.6,98,0,NA
16,2013-01-16,Arnulf,00:00,23:59,289,14,303,-8.6,-0.7,1.9,93,0,NA
17,2013-01-17,Arnulf,00:00,23:59,0,0,0,-7.9,-3.5,3.5,100,0,NA
18,2013-01-18,Arnulf,00:00,23:59,0,0,0,-5.1,-2.7,0,95,0,NA
19,2013-01-19,Arnulf,00:00,23:59,0,0,0,-6.1,-4,0,98,0,NA
20,2013-01-20,Arnulf,00:00,23:59,0,0,0,-6.5,-3.3,0,100,0,NA
21,2013-01-21,Arnulf,00:00,23:59,0,0,0,-4.4,-0.8,3.6,98,0,NA
22,2013-01-22,Arnulf,00:00,23:59,207,23,230,-8.7,3.2,0,80,2.7,NA
23,2013-01-23,Arnulf,00:00,23:59,244,13,257,-10.9,3.5,0,41,7.9,NA
24,2013-01-24,Arnulf,00:00,23:59,277,19,296,-6.7,-2.4,1,100,0,NA
25,2013-01-25,Arnulf,00:00,23:59,191,15,206,-5.1,-2.8,0,100,0,NA
26,2013-01-26,Arnulf,00:00,23:59,93,5,98,-14.9,-4.8,0,89,0,NA
27,2013-01-27,Arnulf,00:00,23:59,79,10,89,-12.6,1.6,1.9,96,2.1,NA
28,2013-01-28,Arnulf,00:00,23:59,345,29,374,-1.8,3.5,0,81,0.2,NA
29,2013-01-29,Arnulf,00:00,23:59,272,30,302,-2.3,7.9,5.9,100,0,NA
30,2013-01-30,Arnulf,00:00,23:59,459,24,483,6.4,14.6,3.6,83,1.5,NA
31,2013-01-31,Arnulf,00:00,23:59,539,35,574,5,10,1.3,64,5,NA
32,2013-02-01,Arnulf,00:00,23:59,296,28,324,4.3,7.7,26.4,99,0,NA
33,2013-02-02,Arnulf,00:00,23:59,166,28,194,-0.7,8.3,2,95,0,NA
34,2013-02-03,Arnulf,00:00,23:59,142,25,167,-2.3,2.5,0.3,86,0.3,NA
35,2013-02-04,Arnulf,00:00,23:59,256,30,286,-0.4,6.1,1.9,99,0,NA
36,2013-02-05,Arnulf,00:00,23:59,392,23,415,0.2,7.7,6.8,93,0.9,NA
37,2013-02-06,Arnulf,00:00,23:59,343,22,365,-0.9,2.7,2.6,84,4.1,NA
38,2013-02-07,Arnulf,00:00,23:59,275,24,299,-3,0.9,0,94,0.7,NA
39,2013-02-08,Arnulf,00:00,23:59,228,18,246,-5.5,-0.2,0.6,83,2,NA
40,2013-02-09,Arnulf,00:00,23:59,52,7,59,-10.7,-1.8,0,88,2.8,NA
41,2013-02-10,Arnulf,00:00,23:59,43,6,49,-12.1,-3.9,0,56,6.6,NA
42,2013-02-11,Arnulf,00:00,23:59,162,7,169,-8.9,-3,0,70,3.5,NA
43,2013-02-12,Arnulf,00:00,23:59,97,8,105,-6.7,-3,2.5,100,0,NA
44,2013-02-13,Arnulf,00:00,23:59,45,5,50,-11.9,-1.6,0,88,1.9,NA
45,2013-02-14,Arnulf,00:00,23:59,86,6,92,-15.4,0.8,0,71,4.2,NA
46,2013-02-15,Arnulf,00:00,23:59,120,16,136,-15.5,0,3.8,96,0,NA
47,2013-02-16,Arnulf,00:00,23:59,115,9,124,-0.6,2.7,1.8,99,0.1,NA
48,2013-02-17,Arnulf,00:00,23:59,97,11,108,-0.1,1.4,0,100,0,NA
49,2013-02-18,Arnulf,00:00,23:59,337,17,354,-3.7,1.3,0,89,0.4,NA
50,2013-02-19,Arnulf,00:00,23:59,329,13,342,-3,1,1.4,98,0.1,NA
51,2013-02-20,Arnulf,00:00,23:59,113,9,122,-4.4,4.2,0,89,2.9,NA
52,2013-02-21,Arnulf,00:00,23:59,125,10,135,-6.3,-2.4,0.1,90,0.1,NA
53,2013-02-22,Arnulf,00:00,23:59,126,4,130,-6.6,-4.3,0.4,98,1.6,NA
54,2013-02-23,Arnulf,00:00,23:59,56,1,57,-8,-3.2,2.7,94,2.6,NA
55,2013-02-24,Arnulf,00:00,23:59,37,4,41,-5.3,-0.3,0,98,0.6,NA
56,2013-02-25,Arnulf,00:00,23:59,213,14,227,-12.3,4.1,0,58,4.3,NA
57,2013-02-26,Arnulf,00:00,23:59,78,7,85,-11,0.6,5.4,96,0,NA
58,2013-02-27,Arnulf,00:00,23:59,206,15,221,0.2,2,0,100,0,NA
59,2013-02-28,Arnulf,00:00,23:59,373,14,387,0.5,2,0,100,0,NA
60,2013-03-01,Arnulf,00:00,23:59,109,2,111,-0.6,0.6,0,100,0,NA
61,2013-03-02,Arnulf,00:00,23:59,0,0,0,-6.6,3.5,0,66,5.7,NA
62,2013-03-03,Arnulf,00:00,23:59,0,0,0,-8.7,2.9,0,13,8.1,NA
63,2013-03-04,Arnulf,00:00,23:59,0,0,0,-9,4.8,0,0,10.2,NA
64,2013-03-05,Arnulf,00:00,23:59,529,22,551,-6.5,10,0,30,9.3,NA
65,2013-03-06,Arnulf,00:00,23:59,711,27,738,-4.3,12.7,0,79,6.1,NA
66,2013-03-07,Arnulf,00:00,23:59,779,28,807,-0.4,15.4,0,80,6.7,NA
67,2013-03-08,Arnulf,00:00,23:59,766,28,794,-0.4,16.5,1.7,59,9.9,NA
68,2013-03-09,Arnulf,00:00,23:59,347,11,358,3.8,13,0.6,88,0.2,NA
69,2013-03-10,Arnulf,00:00,23:59,249,16,265,2.6,11.9,3.3,76,1.5,NA
70,2013-03-11,Arnulf,00:00,23:59,547,25,572,3.1,7,0,94,0,NA
71,2013-03-12,Arnulf,00:00,23:59,1190,38,1228,2.2,5.7,4.7,99,0,NA
72,2013-03-13,Arnulf,00:00,23:59,909,42,951,-3.7,3.8,0,100,0,NA
73,2013-03-14,Arnulf,00:00,23:59,848,46,894,-6,-0.9,0,80,4.1,NA
74,2013-03-15,Arnulf,00:00,23:59,759,42,801,-6.6,-0.1,0.1,60,4.5,NA
75,2013-03-16,Arnulf,00:00,23:59,631,19,650,-7.9,4.8,0,33,10.5,NA
76,2013-03-17,Arnulf,00:00,23:59,605,39,644,-3.8,7.4,0,74,6.8,NA
77,2013-03-18,Arnulf,00:00,23:59,792,65,857,0.5,4.1,7.3,99,0,NA
78,2013-03-19,Arnulf,00:00,23:59,1039,37,1076,-0.8,8.9,0.7,65,5.1,NA
79,2013-03-20,Arnulf,00:00,23:59,1276,44,1320,-3,12.2,0.2,75,6,NA
80,2013-03-21,Arnulf,00:00,23:59,943,66,1009,-2.9,6.6,0,81,4.4,NA
81,2013-03-22,Arnulf,00:00,23:59,1453,51,1504,-2.1,7,0,58,8.5,NA
82,2013-03-23,Arnulf,00:00,23:59,604,24,628,-1.7,1.7,0,98,0.5,NA
83,2013-03-24,Arnulf,00:00,23:59,394,34,428,-3.2,2,0.4,98,2.4,NA
84,2013-03-25,Arnulf,00:00,23:59,655,31,686,-3.8,-1,2,100,0,NA
85,2013-03-26,Arnulf,00:00,23:59,146,8,154,-5.9,-3.5,1.5,99,0,NA
86,2013-03-27,Arnulf,00:00,23:59,103,6,109,-7.1,-0.2,0,91,1.9,NA
87,2013-03-28,Arnulf,00:00,23:59,379,15,394,-6.4,3.9,5.8,79,1.2,NA
88,2013-03-29,Arnulf,00:00,23:59,314,24,338,0.7,6.2,1,86,4.9,NA
89,2013-03-30,Arnulf,00:00,23:59,368,9,377,0.3,5.3,7.1,100,0,NA
90,2013-03-31,Arnulf,00:00,23:59,146,14,160,-1.5,2.3,1.1,94,0,NA
91,2013-04-01,Arnulf,00:00,23:59,407,16,423,-5,3.7,0,75,5.5,NA
92,2013-04-02,Arnulf,00:00,23:59,1006,57,1063,-0.2,4.1,0,95,1.5,NA
93,2013-04-03,Arnulf,00:00,23:59,1097,47,1144,-0.8,4.8,0,90,1.5,NA
94,2013-04-04,Arnulf,00:00,23:59,1232,56,1288,-1.8,6.2,0,58,6.3,NA
95,2013-04-05,Arnulf,00:00,23:59,1105,32,1137,0.1,3.3,0,100,0,NA
96,2013-04-06,Arnulf,00:00,23:59,857,24,881,1.1,4.2,0,100,0,NA
97,2013-04-07,Arnulf,00:00,23:59,485,30,515,-1.8,5.1,0,89,0,NA
98,2013-04-08,Arnulf,00:00,23:59,1528,69,1597,-1.2,9.7,0.5,76,6.6,NA
99,2013-04-09,Arnulf,00:00,23:59,1505,58,1563,1.1,12.9,5.2,83,4.2,NA
100,2013-04-10,Arnulf,00:00,23:59,1362,26,1388,3,12.5,2.3,86,2.6,NA
101,2013-04-11,Arnulf,00:00,23:59,1183,62,1245,3.8,16.2,3.3,95,0.4,NA
102,2013-04-12,Arnulf,00:00,23:59,1558,55,1613,7,14,0.2,79,2.3,NA
103,2013-04-13,Arnulf,00:00,23:59,1258,33,1291,1.4,14.3,0.2,41,7.3,NA
104,2013-04-14,Arnulf,00:00,23:59,1827,55,1882,0.7,19.2,0,78,7.5,NA
105,2013-04-15,Arnulf,00:00,23:59,3251,80,3331,3.1,22.1,0,28,12.5,NA
106,2013-04-16,Arnulf,00:00,23:59,2383,99,2482,5.1,23,3.9,78,5.2,NA
107,2013-04-17,Arnulf,00:00,23:59,2880,77,2957,8.2,21.2,0,83,6.8,NA
108,2013-04-18,Arnulf,00:00,23:59,2923,65,2988,6,24.7,2.5,80,8.5,NA
109,2013-04-19,Arnulf,00:00,23:59,1326,52,1378,6.5,12.7,10.1,100,0,NA
110,2013-04-20,Arnulf,00:00,23:59,585,20,605,5.8,9.2,0.3,100,0,NA
111,2013-04-21,Arnulf,00:00,23:59,844,40,884,8.1,13.8,0,94,3.5,NA
112,2013-04-22,Arnulf,00:00,23:59,2124,74,2198,8.6,14.1,0,91,0.1,NA
113,2013-04-23,Arnulf,00:00,23:59,2829,90,2919,5.1,17,0,70,3.6,NA
114,2013-04-24,Arnulf,00:00,23:59,3256,94,3350,2.8,20.6,0,36,11.2,NA
115,2013-04-25,Arnulf,00:00,23:59,3618,112,3730,4.5,22.9,0,3,12.7,NA
116,2013-04-26,Arnulf,00:00,23:59,3080,89,3169,5,24.7,0,46,10.2,NA
117,2013-04-27,Arnulf,00:00,23:59,1312,25,1337,0,20.8,5.9,90,3.4,NA
118,2013-04-28,Arnulf,00:00,23:59,1067,58,1125,0,10.6,0,100,0,NA
119,2013-04-29,Arnulf,00:00,23:59,2189,63,2252,8.4,12.8,0,98,0,NA
120,2013-04-30,Arnulf,00:00,23:59,2495,79,2574,6.4,16.8,0,84,0.2,NA
121,2013-05-01,Arnulf,00:00,23:59,2297,67,2364,5.7,20.7,0.4,73,7.5,NA
122,2013-05-02,Arnulf,00:00,23:59,1823,57,1880,11.5,16.9,0.3,98,0.2,NA
123,2013-05-03,Arnulf,00:00,23:59,2044,74,2118,10.8,14.9,0.9,98,0,NA
124,2013-05-04,Arnulf,00:00,23:59,1608,44,1652,7.7,18.5,0,80,5.6,NA
125,2013-05-05,Arnulf,00:00,23:59,1854,55,1909,6.5,18.8,0,44,10.9,NA
126,2013-05-06,Arnulf,00:00,23:59,2606,54,2660,9.2,21.4,7,79,7.5,NA
127,2013-05-07,Arnulf,00:00,23:59,2407,77,2484,11.6,17.8,0.1,91,0.1,NA
128,2013-05-08,Arnulf,00:00,23:59,3538,110,3648,10.6,22.1,0,45,10.2,NA
129,2013-05-09,Arnulf,00:00,23:59,2232,51,2283,7.9,22.6,10.7,84,6.3,NA
130,2013-05-10,Arnulf,00:00,23:59,603,28,631,9,14.5,11.8,98,0,NA
131,2013-05-11,Arnulf,00:00,23:59,749,30,779,9,12.8,6.2,98,0,NA
132,2013-05-12,Arnulf,00:00,23:59,697,55,752,4.1,14,3.5,73,3.3,NA
133,2013-05-13,Arnulf,00:00,23:59,1846,72,1918,3.2,12.4,0.4,93,0,NA
134,2013-05-14,Arnulf,00:00,23:59,3168,110,3278,7.5,18.8,0,66,9.6,NA
135,2013-05-15,Arnulf,00:00,23:59,3977,110,4087,6.6,24.2,0,54,9.4,NA
136,2013-05-16,Arnulf,00:00,23:59,3141,106,3247,5.6,20.7,0,71,2.5,NA
137,2013-05-17,Arnulf,00:00,23:59,2079,96,2175,11.1,20,6.5,90,4,NA
138,2013-05-18,Arnulf,00:00,23:59,2171,66,2237,10.2,19.1,0,49,11.3,NA
139,2013-05-19,Arnulf,00:00,23:59,790,46,836,5.9,21,0.1,60,6,NA
140,2013-05-20,Arnulf,00:00,23:59,1346,52,1398,6,17.3,0,56,10.1,NA
141,2013-05-21,Arnulf,00:00,23:59,1991,61,2052,6.3,16.9,13.3,75,6.6,NA
142,2013-05-22,Arnulf,00:00,23:59,1535,61,1596,6.9,13,1.3,91,0.7,NA
143,2013-05-23,Arnulf,00:00,23:59,1848,73,1921,5.5,13.3,1.9,90,3.2,NA
144,2013-05-24,Arnulf,00:00,23:59,1388,58,1446,4.2,9.7,0.1,95,0.6,NA
145,2013-05-25,Arnulf,00:00,23:59,987,47,1034,3.2,9.5,0.2,91,0.2,NA
146,2013-05-26,Arnulf,00:00,23:59,326,43,369,4.9,8.3,26,98,0.1,NA
147,2013-05-27,Arnulf,00:00,23:59,1095,44,1139,3.4,12.6,1.8,94,0,NA
148,2013-05-28,Arnulf,00:00,23:59,2934,76,3010,1.1,19.2,2.1,41,13.2,NA
149,2013-05-29,Arnulf,00:00,23:59,905,46,951,7.2,12.3,5,95,0,NA
150,2013-05-30,Arnulf,00:00,23:59,495,29,524,5.9,12.3,13.4,96,0.3,NA
151,2013-05-31,Arnulf,00:00,23:59,445,35,480,7.4,10.5,21.5,100,0,NA
152,2013-06-01,Arnulf,00:00,23:59,418,25,443,5.8,13.4,22.8,98,0,NA
153,2013-06-02,Arnulf,00:00,23:59,158,14,172,7.1,11.6,41.5,100,0,NA
154,2013-06-03,Arnulf,00:00,23:59,1097,58,1155,6,8.5,3.7,100,0,NA
155,2013-06-04,Arnulf,00:00,23:59,2012,45,2057,6.1,16.2,0.4,88,2.4,NA
156,2013-06-05,Arnulf,00:00,23:59,3231,113,3344,8.1,21.1,0,54,11.3,NA
157,2013-06-06,Arnulf,00:00,23:59,3458,93,3551,5.6,22.3,0,29,13.8,NA
158,2013-06-07,Arnulf,00:00,23:59,3293,85,3378,8.3,22,0,56,13.1,NA
159,2013-06-08,Arnulf,00:00,23:59,3269,47,3316,8.6,24.7,0,35,14.2,NA
160,2013-06-09,Arnulf,00:00,23:59,1430,70,1500,10.8,23.5,5.8,75,6.9,NA
161,2013-06-10,Arnulf,00:00,23:59,1720,68,1788,13,16.6,5.3,96,0,NA
162,2013-06-11,Arnulf,00:00,23:59,2356,87,2443,11.3,19.9,0,83,2.7,NA
163,2013-06-12,Arnulf,00:00,23:59,3536,77,3613,10.7,22.8,0,59,10.3,NA
164,2013-06-13,Arnulf,00:00,23:59,4213,140,4353,8.6,26.1,2.6,33,14.8,NA
165,2013-06-14,Arnulf,00:00,23:59,2326,88,2414,12.2,17.7,0.1,89,3.8,NA
166,2013-06-15,Arnulf,00:00,23:59,2746,55,2801,9.8,25.8,2.5,76,11.8,NA
167,2013-06-16,Arnulf,00:00,23:59,1406,31,1437,14.7,26.8,0,49,11.5,NA
168,2013-06-17,Arnulf,00:00,23:59,3956,140,4096,13.1,31.1,0,14,14.9,NA
169,2013-06-18,Arnulf,00:00,23:59,4087,100,4187,14.8,32.7,0,28,13.2,NA
170,2013-06-19,Arnulf,00:00,23:59,4247,115,4362,14.8,33.1,0,23,14,NA
171,2013-06-20,Arnulf,00:00,23:59,3394,86,3480,16.5,33.1,3.6,31,11.2,NA
172,2013-06-21,Arnulf,00:00,23:59,3208,78,3286,14.9,23.5,10.3,75,7.3,NA
173,2013-06-22,Arnulf,00:00,23:59,1341,40,1381,12.5,20.4,8.9,71,3.8,NA
174,2013-06-23,Arnulf,00:00,23:59,1093,54,1147,10.1,21.2,22.4,76,2.3,NA
175,2013-06-24,Arnulf,00:00,23:59,1538,44,1582,11,15.2,3.2,95,0,NA
176,2013-06-25,Arnulf,00:00,23:59,1939,77,2016,10.4,15.8,0.4,99,0.6,NA
177,2013-06-26,Arnulf,00:00,23:59,2514,100,2614,4.9,15.5,0,86,8.2,NA
178,2013-06-27,Arnulf,00:00,23:59,2332,91,2423,4.5,16.4,1.7,86,2.6,NA
179,2013-06-28,Arnulf,00:00,23:59,2440,72,2512,7.8,18.1,0.2,65,5.9,NA
180,2013-06-29,Arnulf,00:00,23:59,767,41,808,7.5,15.9,4.8,88,0.8,NA
181,2013-06-30,Arnulf,00:00,23:59,1451,73,1524,9.7,18.5,0,59,8.2,NA
182,2013-07-01,Arnulf,00:00,23:59,3633,128,3761,9.9,22.5,0,35,11.4,NA
183,2013-07-02,Arnulf,00:00,23:59,4159,110,4269,9.7,26.8,0.1,68,12.9,NA
184,2013-07-03,Arnulf,00:00,23:59,2662,85,2747,14.3,23.6,2.7,91,1.7,NA
185,2013-07-04,Arnulf,00:00,23:59,2942,118,3060,15.3,23.4,0.1,88,3.4,NA
186,2013-07-05,Arnulf,00:00,23:59,3124,80,3204,13.3,24.2,0,78,4.5,NA
187,2013-07-06,Arnulf,00:00,23:59,2450,49,2499,12.8,24.2,0,73,9.9,NA
188,2013-07-07,Arnulf,00:00,23:59,2136,40,2176,13.7,25.8,0,41,11.3,NA
189,2013-07-08,Arnulf,00:00,23:59,3818,197,4015,14.8,25.3,0,66,13,NA
190,2013-07-09,Arnulf,00:00,23:59,4069,117,4186,13.4,25.8,0,63,14.2,NA
191,2013-07-10,Arnulf,00:00,23:59,4346,104,4450,12.6,27.4,0,38,12.8,NA
192,2013-07-11,Arnulf,00:00,23:59,4054,137,4191,11.4,21.5,0,56,9,NA
193,2013-07-12,Arnulf,00:00,23:59,3730,141,3871,7.7,22.5,0,28,12.5,NA
194,2013-07-13,Arnulf,00:00,23:59,3012,46,3058,6.6,24.2,0,23,12,NA
195,2013-07-14,Arnulf,00:00,23:59,2325,72,2397,8.4,25.7,0,33,12.4,NA
196,2013-07-15,Arnulf,00:00,23:59,3918,145,4063,10.5,25.7,0,44,12.6,NA
197,2013-07-16,Arnulf,00:00,23:59,4274,165,4439,7.6,26.4,0,8,14.7,NA
198,2013-07-17,Arnulf,00:00,23:59,4223,131,4354,7.9,28.2,0,10,14.6,NA
199,2013-07-18,Arnulf,00:00,23:59,4221,128,4349,12.1,28.6,0,30,12.9,NA
200,2013-07-19,Arnulf,00:00,23:59,3960,88,4048,12.5,28.5,0,13,13.1,NA
201,2013-07-20,Arnulf,00:00,23:59,2730,61,2791,12.1,28.4,0,34,13.8,NA
202,2013-07-21,Arnulf,00:00,23:59,2335,88,2423,12.8,28.2,0,13,14.5,NA
203,2013-07-22,Arnulf,00:00,23:59,4038,159,4197,10.3,29.6,0,4,14.7,NA
204,2013-07-23,Arnulf,00:00,23:59,4221,114,4335,10.9,31.3,0.1,31,12.1,NA
205,2013-07-24,Arnulf,00:00,23:59,3558,105,3663,16.6,30.6,0.1,78,8.4,NA
206,2013-07-25,Arnulf,00:00,23:59,4055,134,4189,13.6,30.3,0,28,9.9,NA
207,2013-07-26,Arnulf,00:00,23:59,3941,126,4067,14.3,31.8,0,50,13.8,NA
208,2013-07-27,Arnulf,00:00,23:59,2651,53,2704,13.9,35.3,0,19,13.1,NA
209,2013-07-28,Arnulf,00:00,23:59,1696,72,1768,14.8,34.8,1.6,29,12,NA
210,2013-07-29,Arnulf,00:00,23:59,2239,69,2308,15.1,24.6,8.7,84,1.6,NA
211,2013-07-30,Arnulf,00:00,23:59,3461,122,3583,13.4,24.4,0.1,60,6.6,NA
212,2013-07-31,Arnulf,00:00,23:59,4210,157,4367,13.5,27.2,0,53,7.5,NA
213,2013-08-01,Arnulf,00:00,23:59,4366,148,4514,11,31.5,0,1,14.2,NA
214,2013-08-02,Arnulf,00:00,23:59,3874,156,4030,10.9,35.2,0,1,14.3,NA
215,2013-08-03,Arnulf,00:00,23:59,2707,72,2779,13.9,32.1,3.6,43,10,NA
216,2013-08-04,Arnulf,00:00,23:59,2087,137,2224,13.5,29.4,0,35,10.5,NA
217,2013-08-05,Arnulf,00:00,23:59,3813,134,3947,11.8,32.3,0,21,13,NA
218,2013-08-06,Arnulf,00:00,23:59,3512,125,3637,16.3,34,14.5,54,9.3,NA
219,2013-08-07,Arnulf,00:00,23:59,3430,115,3545,14.3,28.5,0,81,5.3,NA
220,2013-08-08,Arnulf,00:00,23:59,3159,102,3261,16.6,26.9,0,88,3.6,NA
221,2013-08-09,Arnulf,00:00,23:59,1445,84,1529,14.4,19.2,17.8,98,0,NA
222,2013-08-10,Arnulf,00:00,23:59,2803,79,2882,11.4,24.3,0,48,11.1,NA
223,2013-08-11,Arnulf,00:00,23:59,2291,91,2382,14.4,23.5,0,56,9.3,NA
224,2013-08-12,Arnulf,00:00,23:59,3502,131,3633,11.6,26.3,2.2,49,10.2,NA
225,2013-08-13,Arnulf,00:00,23:59,2997,90,3087,12.2,22.4,0,79,5.7,NA
226,2013-08-14,Arnulf,00:00,23:59,3230,120,3350,10.6,20.7,0,60,7.4,NA
227,2013-08-15,Arnulf,00:00,23:59,3226,101,3327,9.3,22.8,0,55,12.3,NA
228,2013-08-16,Arnulf,00:00,23:59,2994,116,3110,6.5,26.5,0,14,13.5,NA
229,2013-08-17,Arnulf,00:00,23:59,2500,86,2586,9.2,29.1,0,19,12.4,NA
230,2013-08-18,Arnulf,00:00,23:59,1901,109,2010,11.4,29.1,0,70,10.2,NA
231,2013-08-19,Arnulf,00:00,23:59,1533,105,1638,14.8,20.8,13,94,0.5,NA
232,2013-08-20,Arnulf,00:00,23:59,2803,107,2910,7.6,17.8,0,56,3.4,NA
233,2013-08-21,Arnulf,00:00,23:59,3349,113,3462,6.7,21.4,0,23,10.7,NA
234,2013-08-22,Arnulf,00:00,23:59,3252,127,3379,6.1,23.1,0,34,11.6,NA
235,2013-08-23,Arnulf,00:00,23:59,2976,109,3085,9.2,23.2,0,85,7.8,NA
236,2013-08-24,Arnulf,00:00,23:59,2384,92,2476,7.7,25.4,8.6,58,9.2,NA
237,2013-08-25,Arnulf,00:00,23:59,381,24,405,12.2,16.2,9.9,94,0,NA
238,2013-08-26,Arnulf,00:00,23:59,2359,96,2455,9.8,19.2,0.7,84,3.7,NA
239,2013-08-27,Arnulf,00:00,23:59,1880,59,1939,13.6,17.4,0.4,96,0,NA
240,2013-08-28,Arnulf,00:00,23:59,2249,64,2313,10.6,20.7,0,83,2.8,NA
241,2013-08-29,Arnulf,00:00,23:59,3093,116,3209,8,21.5,0,46,8.7,NA
242,2013-08-30,Arnulf,00:00,23:59,2919,74,2993,5.4,23.1,0,23,12.3,NA
243,2013-08-31,Arnulf,00:00,23:59,2481,75,2556,7.4,23.3,0,61,8.6,NA
244,2013-09-01,Arnulf,00:00,23:59,1177,56,1233,9.3,18.7,0.3,90,1.8,NA
245,2013-09-02,Arnulf,00:00,23:59,2575,101,2676,7.4,18,0,88,1.6,NA
246,2013-09-03,Arnulf,00:00,23:59,3034,96,3130,10.1,24.4,0,50,9.4,NA
247,2013-09-04,Arnulf,00:00,23:59,3452,106,3558,7.7,25.4,0,13,12.4,NA
248,2013-09-05,Arnulf,00:00,23:59,3510,84,3594,7.8,26.3,0,1,12.4,NA
249,2013-09-06,Arnulf,00:00,23:59,3414,87,3501,6.6,27.1,0,6,12.2,NA
250,2013-09-07,Arnulf,00:00,23:59,2568,85,2653,10.1,27.3,0,35,11.7,NA
251,2013-09-08,Arnulf,00:00,23:59,1621,62,1683,13.4,23.9,14,88,2.5,NA
252,2013-09-09,Arnulf,00:00,23:59,2219,89,2308,6.8,18.9,0,56,7.3,NA
253,2013-09-10,Arnulf,00:00,23:59,1529,85,1614,6.9,15.5,6.7,88,0,NA
254,2013-09-11,Arnulf,00:00,23:59,2281,83,2364,7,15.8,3.8,80,3.6,NA
255,2013-09-12,Arnulf,00:00,23:59,1198,57,1255,9.4,12.7,10.1,94,0.3,NA
256,2013-09-13,Arnulf,00:00,23:59,1561,63,1624,7.9,15.5,4.6,81,1.4,NA
257,2013-09-14,Arnulf,00:00,23:59,1076,72,1148,8.7,16.5,1.1,91,0.8,NA
258,2013-09-15,Arnulf,00:00,23:59,1154,61,1215,11.7,20.8,6.8,93,0.8,NA
259,2013-09-16,Arnulf,00:00,23:59,1507,87,1594,9.2,15.1,6,98,0,NA
260,2013-09-17,Arnulf,00:00,23:59,1798,70,1868,7.3,13.4,14.9,76,3.6,NA
261,2013-09-18,Arnulf,00:00,23:59,989,49,1038,7.6,15.9,9.1,98,0.1,NA
262,2013-09-19,Arnulf,00:00,23:59,1978,67,2045,7.1,14.8,0,84,2.1,NA
263,2013-09-20,Arnulf,00:00,23:59,2021,123,2144,9.3,16.5,0.1,91,0.9,NA
264,2013-09-21,Arnulf,00:00,23:59,1681,68,1749,7,16.8,0,83,2.1,NA
265,2013-09-22,Arnulf,00:00,23:59,1671,96,1767,3.7,18.3,0,78,7,NA
266,2013-09-23,Arnulf,00:00,23:59,2833,103,2936,5.1,19.1,0,55,6.9,NA
267,2013-09-24,Arnulf,00:00,23:59,2832,128,2960,5.7,20.4,0,39,10,NA
268,2013-09-25,Arnulf,00:00,23:59,3006,134,3140,4.4,22,3.1,56,9.4,NA
269,2013-09-26,Arnulf,00:00,23:59,1831,108,1939,12.2,17.2,2.7,96,0,NA
270,2013-09-27,Arnulf,00:00,23:59,2218,114,2332,8.1,15.1,0,96,0.1,NA
271,2013-09-28,Arnulf,00:00,23:59,1592,75,1667,6.3,16.5,0,80,2.2,NA
272,2013-09-29,Arnulf,00:00,23:59,1185,78,1263,8,14.2,0,94,4.5,NA
273,2013-09-30,Arnulf,00:00,23:59,2294,113,2407,7.5,11.9,0,91,0,NA
274,2013-10-01,Arnulf,00:00,23:59,2063,90,2153,7.6,11.4,0,99,0,NA
275,2013-10-02,Arnulf,00:00,23:59,2512,116,2628,3.4,12.3,0,18,10.4,NA
276,2013-10-03,Arnulf,00:00,23:59,1200,96,1296,1.4,13.5,0,25,10.5,NA
277,2013-10-04,Arnulf,00:00,23:59,1692,111,1803,2.1,11.2,0.5,81,0.4,NA
278,2013-10-05,Arnulf,00:00,23:59,520,38,558,2.1,13,9.5,89,0,NA
279,2013-10-06,Arnulf,00:00,23:59,809,79,888,8.4,16.4,0.1,90,2.8,NA
280,2013-10-07,Arnulf,00:00,23:59,2023,68,2091,7.5,15.7,0,81,0.4,NA
281,2013-10-08,Arnulf,00:00,23:59,2146,71,2217,7.3,12.2,0.1,91,0.2,NA
282,2013-10-09,Arnulf,00:00,23:59,2038,53,2091,9.7,13.8,0,100,0,NA
283,2013-10-10,Arnulf,00:00,23:59,1305,48,1353,3,12.4,20.8,96,0,NA
284,2013-10-11,Arnulf,00:00,23:59,1063,51,1114,-0.4,7.5,0.9,80,1.6,NA
285,2013-10-12,Arnulf,00:00,23:59,899,43,942,-0.4,8.2,2.2,71,1,NA
286,2013-10-13,Arnulf,00:00,23:59,988,79,1067,-0.1,13.5,0.5,56,8.6,NA
287,2013-10-14,Arnulf,00:00,23:59,2228,95,2323,0.7,14.2,0.1,79,6.9,NA
288,2013-10-15,Arnulf,00:00,23:59,1759,77,1836,5.3,16.2,24.4,93,1.4,NA
289,2013-10-16,Arnulf,00:00,23:59,1457,44,1501,0.7,9.8,2.6,85,0,NA
290,2013-10-17,Arnulf,00:00,23:59,1931,84,2015,0.3,16,1.6,60,3.2,NA
291,2013-10-18,Arnulf,00:00,23:59,2120,99,2219,5.5,15.2,0,83,4.8,NA
292,2013-10-19,Arnulf,00:00,23:59,1741,36,1777,1.2,16.6,0,60,6.9,NA
293,2013-10-20,Arnulf,00:00,23:59,1211,53,1264,5.9,20.4,1,80,3.6,NA
294,2013-10-21,Arnulf,00:00,23:59,2355,81,2436,8,20.2,0,78,5.6,NA
295,2013-10-22,Arnulf,00:00,23:59,2759,84,2843,6.3,20.8,0,56,4.8,NA
296,2013-10-23,Arnulf,00:00,23:59,1914,77,1991,7,15.4,1.8,79,0.3,NA
297,2013-10-24,Arnulf,00:00,23:59,2497,92,2589,5.4,18.2,0,45,9.3,NA
298,2013-10-25,Arnulf,00:00,23:59,2468,104,2572,4.9,17.8,0,84,4.8,NA
299,2013-10-26,Arnulf,00:00,23:59,1835,80,1915,4,22.6,0,60,8.1,NA
300,2013-10-27,Arnulf,00:00,23:59,988,54,1042,6,18.6,1.5,76,0.6,NA
301,2013-10-28,Arnulf,00:00,23:59,2400,127,2527,11.4,22.4,0,64,5.3,NA
302,2013-10-29,Arnulf,00:00,23:59,1226,52,1278,8.6,13.9,4.5,89,1.2,NA
303,2013-10-30,Arnulf,00:00,23:59,1693,50,1743,0.4,12.5,0.1,61,2.9,NA
304,2013-10-31,Arnulf,00:00,23:59,1685,74,1759,1.2,7.5,0,85,0,NA
305,2013-11-01,Arnulf,00:00,23:59,763,41,804,5.3,8.6,0,98,0,NA
306,2013-11-02,Arnulf,00:00,23:59,951,35,986,5.1,17,4.9,73,1.8,NA
307,2013-11-03,Arnulf,00:00,23:59,445,23,468,4.1,11.3,1.5,66,1.7,NA
308,2013-11-04,Arnulf,00:00,23:59,1983,91,2074,2.8,12.3,0.3,80,3.3,NA
309,2013-11-05,Arnulf,00:00,23:59,1923,77,2000,2,9.5,2.3,64,7.5,NA
310,2013-11-06,Arnulf,00:00,23:59,1124,46,1170,6.7,13.2,7.3,94,0,NA
311,2013-11-07,Arnulf,00:00,23:59,2120,109,2229,6.4,17.5,0,63,5.1,NA
312,2013-11-08,Arnulf,00:00,23:59,2070,89,2159,5.7,18.2,7.9,76,4.5,NA
313,2013-11-09,Arnulf,00:00,23:59,730,45,775,1.5,13.4,1,90,0.3,NA
314,2013-11-10,Arnulf,00:00,23:59,334,17,351,1.9,7.2,7.7,95,0.3,NA
315,2013-11-11,Arnulf,00:00,23:59,1550,68,1618,-0.4,5.9,0.1,89,0,NA
316,2013-11-12,Arnulf,00:00,23:59,1628,109,1737,-0.9,3.2,0,89,0,NA
317,2013-11-13,Arnulf,00:00,23:59,1627,82,1709,2.3,5.3,0,100,0,NA
318,2013-11-14,Arnulf,00:00,23:59,1439,87,1526,1.9,4.2,4.2,100,0,NA
319,2013-11-15,Arnulf,00:00,23:59,1352,65,1417,-1.1,3.8,0.1,98,0,NA
320,2013-11-16,Arnulf,00:00,23:59,614,37,651,3.5,5,0,100,0,NA
321,2013-11-17,Arnulf,00:00,23:59,528,42,570,3.6,4.9,0,100,0,NA
322,2013-11-18,Arnulf,00:00,23:59,1682,89,1771,0.3,6.4,0,76,3,NA
323,2013-11-19,Arnulf,00:00,23:59,1634,74,1708,2.2,4.9,4.1,100,0,NA
324,2013-11-20,Arnulf,00:00,23:59,1483,58,1541,1.7,4.2,0.1,100,0,NA
325,2013-11-21,Arnulf,00:00,23:59,1585,93,1678,1.6,4.5,0,100,0,NA
326,2013-11-22,Arnulf,00:00,23:59,1435,74,1509,1.6,5,1.1,98,0,NA
327,2013-11-23,Arnulf,00:00,23:59,388,20,408,3.8,5.9,1.7,100,0,NA
328,2013-11-24,Arnulf,00:00,23:59,415,42,457,0.6,5.2,0.3,100,0,NA
329,2013-11-25,Arnulf,00:00,23:59,1393,59,1452,-3.3,1.4,0.2,31,7.7,NA
330,2013-11-26,Arnulf,00:00,23:59,981,43,1024,-7.7,0.8,0.1,75,2.7,NA
331,2013-11-27,Arnulf,00:00,23:59,1159,57,1216,-10.6,-1.8,0,34,3.7,NA
332,2013-11-28,Arnulf,00:00,23:59,1039,52,1091,-9.7,-0.6,0.3,86,0,NA
333,2013-11-29,Arnulf,00:00,23:59,1175,52,1227,-0.6,2.8,2.4,100,0,NA
334,2013-11-30,Arnulf,00:00,23:59,661,47,708,0.8,4.9,0,88,4.4,NA
335,2013-12-01,Arnulf,00:00,23:59,570,49,619,-1.8,5.6,0,71,6.6,NA
336,2013-12-02,Arnulf,00:00,23:59,1427,76,1503,-1.5,5.4,0,66,6,NA
337,2013-12-03,Arnulf,00:00,23:59,1437,73,1510,-6.2,3.3,0,60,7,NA
338,2013-12-04,Arnulf,00:00,23:59,1463,54,1517,-6.6,2.4,0.2,84,4.5,NA
339,2013-12-05,Arnulf,00:00,23:59,1325,62,1387,0.6,5.6,2.2,98,0,NA
340,2013-12-06,Arnulf,00:00,23:59,912,41,953,-0.6,5.5,1.4,85,1.4,NA
341,2013-12-07,Arnulf,00:00,23:59,502,20,522,-0.5,3.4,0.2,95,0,NA
342,2013-12-08,Arnulf,00:00,23:59,440,26,466,1,6.2,0,85,1.4,NA
343,2013-12-09,Arnulf,00:00,23:59,1450,61,1511,1.5,6.7,0.7,91,0,NA
344,2013-12-10,Arnulf,00:00,23:59,1650,76,1726,2.4,8.1,0,83,5.1,NA
345,2013-12-11,Arnulf,00:00,23:59,1536,74,1610,1.4,4.1,0,100,0,NA
346,2013-12-12,Arnulf,00:00,23:59,1557,74,1631,0.3,1.6,0,100,0,NA
347,2013-12-13,Arnulf,00:00,23:59,1396,79,1475,-1.9,0.7,0,96,0,NA
348,2013-12-14,Arnulf,00:00,23:59,626,40,666,-3.6,5.7,2.5,80,4.2,NA
349,2013-12-15,Arnulf,00:00,23:59,441,35,476,-4.6,3.3,0,45,1.9,NA
350,2013-12-16,Arnulf,00:00,23:59,1530,62,1592,-5.9,5.4,0,26,8,NA
351,2013-12-17,Arnulf,00:00,23:59,1587,83,1670,-7,6,0,29,7,NA
352,2013-12-18,Arnulf,00:00,23:59,1438,81,1519,-5.6,-0.4,0,76,0.7,NA
353,2013-12-19,Arnulf,00:00,23:59,1443,65,1508,-4,0.3,0,98,0.2,NA